Location: *
(49.8044°N, 4.0558°E)
Time: 00:55:12
(UTC+00:00)

Nadezhda 3 Rocket - Pass Details

Date: 09 April 2020
Orbit: 956 x 1000 km, 82.9° (Epoch: 03 June)

Event Time Altitude Azimuth Distance (km) Brightness Sun altitude
Exits shadow 21:41:20 48° 201° (SSW) 1,275 4.3 -26.2°
Maximum altitude 21:43:15 80° 279° (W) 1,007 4.0 -26.4°
Drops below altitude 10° 21:49:34 10° 8° (N) 2,741 6.9 -26.9°
Sets 21:52:05 0° 10° (N) 3,686 7.7 -27.2°
